Regional Weather Roundup
Issued by NWS

Home | Current Version | Previous Version | Graphics & Text | Print | Product List | Glossary On
Versions: 1 2 3 4 5 6 7 8 9 10 11 12 13 14 15 16 17 18 19 20 21 22 23 24 25 26 27 28 29 30 31 32 33 34 35 36 37 38 39 40 41 42 43 44 45 46 47 48 49 50
731
ASUS43 KLSX 271210
RWRMO

WEATHER SUMMARY FOR MISSOURI
NATIONAL WEATHER SERVICE SPRINGFIELD MO
700 AM CDT SAT MAY 27 2017

NOTE: "FAIR" INDICATES FEW OR NO CLOUDS BELOW 12,000 FEET WITH NO
       SIGNIFICANT WEATHER AND/OR OBSTRUCTIONS TO VISIBILITY.
       CURRENT SKY AND/OR WEATHER CONDITIONS ARE NOT AVAILABLE FOR
       CHILLICOTHE AND FARMINGTON.

MOZ001>031-035>038-043-044-053-054-271300-
...NORTHERN AND WESTERN MISSOURI...

CITY           SKY/WX    TMP DP  RH WIND       PRES   REMARKS
KANSAS CTY INT CLOUDY    68  64  87 E10       29.83R
6HR MIN TEMP:  67; 6HR MAX TEMP:  71;

KANSAS C DTWN  SUNNY     69  66  90 E6        29.81S
6HR MIN TEMP:  66; 6HR MAX TEMP:  71;

LEE`S SUMMIT   SUNNY     66  66 100 E6        29.83R
6HR MIN TEMP:  64; 6HR MAX TEMP:  70;

ST JOSEPH      CLOUDY    67  65  93 CALM      29.83S
6HR MIN TEMP:  61; 6HR MAX TEMP:  67;

CHILLICOTHE      N/A     64  62  93 CALM      29.87R
6HR MIN TEMP:  62; 6HR MAX TEMP:  67;

KIRKSVILLE     MOSUNNY   62  60  93 SE6       29.89R
6HR MIN TEMP:  56; 6HR MAX TEMP:  64;


$$
MOZ066>068-077>081-088>096-101>105-271300-
...SOUTHWEST MISSOURI...

CITY           SKY/WX    TMP DP  RH WIND       PRES   REMARKS
SPRINGFIELD    MOSUNNY   70  69  97 SE9       29.83R FOG
6HR MIN TEMP:  68; 6HR MAX TEMP:  74;

JOPLIN         MOCLDY    75  72  90 S9        29.80R
6HR MIN TEMP:  73; 6HR MAX TEMP:  75;

BRANSON        MOSUNNY   66  64  94 CALM      29.86R

$$
MOZ032>034-039>042-045>050-055>058-069>072-271300-
...CENTRAL MISSOURI...

CITY           SKY/WX    TMP DP  RH WIND       PRES   REMARKS
COLUMBIA       SUNNY     67  66  97 E6        29.88R
6HR MIN TEMP:  66; 6HR MAX TEMP:  69;

JEFFERSON CITY SUNNY     68  65  90 SE5       29.86R FOG
6HR MIN TEMP:  65; 6HR MAX TEMP:  69;

ROLLA          FOG       66  66 100 E7        29.87R VSB<1/4
6HR MIN TEMP:  60; 6HR MAX TEMP:  66;

SEDALIA        SUNNY     67  67 100 E7        29.85F FOG
6HR MIN TEMP:  64; 6HR MAX TEMP:  69;

WHITEMAN AFB   MOSUNNY   67  67 100 E7        29.83S
WARRENSBURG    SUNNY     64  63  94 E5        29.83S
OSAGE BEACH    CLOUDY    66  66 100 NE5       29.87R FOG

$$
MOZ051-052-059>065-271300-
...EAST CENTRAL MISSOURI...

CITY           SKY/WX    TMP DP  RH WIND       PRES   REMARKS
ST LOUIS INTL  MOSUNNY   70  65  84 E3        29.88R
6HR MIN TEMP:  69; 6HR MAX TEMP:  74;

SPIRIT OF STL  MOSUNNY   68  67  96 CALM      29.87R
6HR MIN TEMP:  65; 6HR MAX TEMP:  71;

ST CHARLES     SUNNY     67  65  93 VRB3      29.87R
6HR MIN TEMP:  64; 6HR MAX TEMP:  73;


$$
MOZ072>076-082>087-097>100-106>115-271300-
...SOUTH CENTRAL AND SOUTHEAST MISSOURI...

CITY           SKY/WX    TMP DP  RH WIND       PRES   REMARKS
CAPE GIRARDEAU CLOUDY    70  68  93 S7        29.85R FOG
6HR MIN TEMP:  67; 6HR MAX TEMP:  71; 6HR PCP:  0.01;

FARMINGTON     CLOUDY    66  65  96 NE3       29.88R FOG
6HR MIN TEMP:  65; 6HR MAX TEMP:  70;

POPLAR BLUFF   LGT RAIN  67  65  93 W7        29.85R
6HR MIN TEMP:  67; 6HR MAX TEMP:  73; 6HR PCP:  0.04;

WEST PLAINS    SUNNY     69  67  93 S5        29.88S
6HR MIN TEMP:  69; 6HR MAX TEMP:  72; 6HR PCP:  0.15;


$$




USA.gov is the U.S. government's official web portal to all federal, state and local government web resources and services.